Location: Hermaringen
(48.5952°N, 10.2585°E)
Time: 09:52:08
(UTC+00:00)

Vanguard 3 - Pass Details

Date: 26 February 2026
Orbit: 507 x 3205 km, 33.4° (Epoch: 6 March)

Event Time Altitude Azimuth Distance (km) Brightness Sun altitude
Rises 18:00:47 0° 265° (W) 5,085 13.4 -11.2°
Reaches altitude 10° 18:07:18 10° 239° (WSW) 3,355 11.2 -12.2°
Maximum altitude 18:09:58 12° 220° (SW) 2,904 10.5 -12.7°
Drops below altitude 10° 18:12:16 10° 199° (SSW) 2,777 10.1 -13.1°
Sets 18:16:21 0° 167° (SSE) 3,265 10.1 -13.7°
